Date String (YYYY-MM-DD hh:mm:ss) UTC,Instrument flags,Ambient pressure (hPa),Sample flow (lpm),Bypass flow (lpm),Sample temperature (°C),Ambient temperature (°C),ASC tube jacket temperature (°C),LED temperature (°C),Box temperature (°C),Sample RH (%),Span deviation,Mass concentration (μg/m³),Mass concentration (μg/m³),Mass concentration (μg/m³)
DateTimeUTC,F1_M11,P_M11,Q1_M11,Q2_M11,T1_M11,T2_M11,T3_M11,T4_M11,T5_M11,U1_M11,ZSPAN_M11,X2_M11,X0_M11,X1_M11
2021-11-09 20:00:00,,0826.4,5.00,0.00,27.9,27.1,00.0,36.8,29.7,15.7,-000.1,0017.30,0028.58,0015.58
2021-11-09 20:01:00,,0826.3,5.00,0.00,27.9,27.1,00.0,36.8,29.7,15.7,-000.1,0017.38,0029.48,0015.62
2021-11-09 20:02:00,,0826.2,5.02,0.00,27.9,27.1,00.0,36.8,29.7,15.6,-000.1,0017.31,0029.72,0015.64
2021-11-09 20:03:00,,0826.5,5.00,0.00,27.9,27.1,00.0,36.9,29.7,15.6,-000.1,0017.31,0029.46,0015.67
2021-11-09 20:04:00,,0826.2,4.99,0.00,27.9,27.1,00.0,36.9,29.7,15.6,-000.0,0017.31,0028.71,0015.70
2021-11-09 20:05:00,,0826.2,5.01,0.00,27.9,27.1,00.0,36.9,29.7,15.7,0000.0,0017.35,0029.02,0015.72
2021-11-09 20:06:00,,0826.2,5.00,0.00,27.9,27.1,00.0,36.9,29.7,15.7,-000.0,0017.39,0029.18,0015.73
2021-11-09 20:07:00,,0826.2,5.00,0.00,27.9,27.1,00.0,36.9,29.7,15.7,-000.2,0017.30,0029.12,0015.71
2021-11-09 20:08:00,,0826.2,5.01,0.00,27.9,27.1,00.0,36.9,29.7,15.7,-000.3,0017.31,0029.58,0015.71
2021-11-09 20:09:00,,0826.2,5.00,0.00,27.9,27.1,00.0,36.9,29.7,15.7,-000.3,0017.41,0030.19,0015.72
2021-11-09 20:10:00,,0826.2,5.00,0.00,27.9,27.1,00.0,36.9,29.7,15.7,-000.5,0017.45,0029.87,0015.76
2021-11-09 20:11:00,,0826.2,5.00,0.00,27.9,27.1,00.0,36.9,29.7,15.7,-000.4,0017.35,0030.00,0015.76
2021-11-09 20:12:00,,0826.3,5.01,0.00,27.9,27.0,00.0,36.9,29.7,15.8,-000.6,0017.26,0029.55,0015.71
2021-11-09 20:13:00,,0826.2,4.99,0.00,27.9,27.0,00.0,36.9,29.7,15.7,-000.9,0017.24,0030.23,0015.68
2021-11-09 20:14:00,,0826.2,5.00,0.00,27.9,27.0,00.0,36.9,29.7,15.7,-000.8,0017.26,0031.04,0015.67
2021-11-09 20:15:00,,0826.2,5.00,0.00,27.9,27.1,00.0,36.9,29.7,15.8,-000.8,0017.22,0031.33,0015.64
2021-11-09 20:16:00,,0826.1,5.00,0.00,27.9,27.1,00.0,36.9,29.7,15.8,-001.0,0017.20,0031.28,0015.63
2021-11-09 20:17:00,,0826.2,5.00,0.00,27.9,27.1,00.0,36.9,29.7,15.8,-000.9,0017.20,0031.84,0015.65
2021-11-09 20:18:00,,0826.2,5.00,0.00,27.9,27.1,00.0,36.9,29.7,15.8,-000.8,0017.28,0032.20,0015.69
2021-11-09 20:19:00,,0826.1,4.99,0.00,27.9,27.1,00.0,36.9,29.7,15.8,-000.7,0017.32,0032.31,0015.73
2021-11-09 20:20:00,,0826.0,5.01,0.00,27.9,27.1,00.0,36.9,29.7,15.8,-000.8,0017.26,0031.27,0015.76
2021-11-09 20:21:00,,0826.0,5.00,0.00,27.9,27.0,00.0,36.9,29.7,15.8,-000.5,0017.27,0031.27,0015.79
2021-11-09 20:22:00,,0826.0,5.00,0.00,27.9,27.0,00.0,36.9,29.7,15.8,-000.5,0017.31,0030.72,0015.82
2021-11-09 20:23:00,,0826.0,5.00,0.00,27.9,27.1,00.0,36.9,29.7,15.8,-000.6,0017.35,0030.54,0015.84
2021-11-09 20:24:00,,0826.0,5.00,0.00,27.9,27.1,00.0,36.9,29.7,15.7,-000.5,0017.42,0029.70,0015.85
2021-11-09 20:25:00,,0826.0,5.01,0.00,27.9,27.0,00.0,36.9,29.7,15.7,-000.6,0017.45,0028.27,0015.87
2021-11-09 20:26:00,,0826.0,4.99,0.00,27.9,27.0,00.0,36.9,29.7,15.7,-000.8,0017.50,0027.52,0015.94
2021-11-09 20:27:00,,0825.9,4.99,0.00,27.8,27.0,00.0,36.9,29.7,15.7,-000.7,0017.53,0027.79,0016.01
2021-11-09 20:28:00,,0825.9,5.00,0.00,27.9,27.0,00.0,36.9,29.7,15.7,-000.8,0017.61,0027.39,0016.07
2021-11-09 20:29:00,,0825.9,5.00,0.00,27.9,27.0,00.0,36.9,29.7,15.7,-001.0,0017.68,0027.02,0016.08
2021-11-09 20:30:00,,0825.9,4.99,0.00,27.9,27.1,00.0,36.9,29.7,15.7,-001.1,0017.73,0026.70,0016.11
2021-11-09 20:31:00,,0825.8,5.00,0.00,27.9,27.1,00.0,36.9,29.7,15.7,-001.1,0017.82,0027.43,0016.14
2021-11-09 20:32:00,,0825.9,5.00,0.00,27.9,27.1,00.0,36.9,29.7,15.7,-001.0,0017.83,0027.93,0016.15
2021-11-09 20:33:00,,0825.9,4.99,0.00,27.9,27.1,00.0,36.9,29.7,15.7,-000.9,0017.83,0027.64,0016.14
2021-11-09 20:34:00,,0825.9,4.98,0.00,27.9,27.1,00.0,36.9,29.7,15.6,-000.9,0017.84,0027.37,0016.15
2021-11-09 20:35:00,,0826.0,4.99,0.00,27.9,27.1,00.0,36.9,29.8,15.7,-000.8,0017.90,0027.47,0016.17
2021-11-09 20:36:00,,0825.9,5.02,0.00,27.9,27.1,00.0,36.9,29.8,15.6,-000.7,0017.89,0027.80,0016.19
2021-11-09 20:37:00,,0825.9,4.99,0.00,27.9,27.2,00.0,36.9,29.7,15.6,-000.8,0017.87,0028.96,0016.18
2021-11-09 20:38:00,,0825.8,5.00,0.00,27.9,27.2,00.0,36.9,29.8,15.6,-000.6,0017.88,0028.28,0016.16
2021-11-09 20:39:00,,0826.1,5.00,0.00,27.9,27.2,00.0,36.9,29.8,15.6,-000.5,0017.83,0027.96,0016.14
2021-11-09 20:40:00,,0825.9,4.99,0.00,28.0,27.2,00.0,36.9,29.8,15.5,-000.5,0017.79,0028.07,0016.16
2021-11-09 20:41:00,,0825.7,5.00,0.00,28.0,27.2,00.0,36.9,29.7,15.5,-000.5,0017.78,0028.17,0016.18
2021-11-09 20:42:00,,0825.7,5.02,0.00,28.0,27.1,00.0,36.9,29.8,15.5,-000.6,0017.77,0027.72,0016.17
2021-11-09 20:43:00,,0825.7,4.99,0.00,28.0,27.1,00.0,36.9,29.8,15.5,-000.7,0017.75,0027.97,0016.19
2021-11-09 20:44:00,,0825.6,4.99,0.00,28.0,27.1,00.0,36.9,29.8,15.5,-000.8,0017.78,0028.80,0016.21
2021-11-09 20:45:00,,0825.6,5.00,0.00,28.0,27.1,00.0,36.9,29.8,15.5,-000.8,0017.80,0029.22,0016.24
2021-11-09 20:46:00,,0825.6,4.99,0.00,28.0,27.1,00.0,36.9,29.8,15.5,-000.8,0017.73,0029.31,0016.25
2021-11-09 20:47:00,,0825.5,5.00,0.00,28.0,27.1,00.0,36.9,29.8,15.5,-000.9,0017.73,0029.34,0016.27
2021-11-09 20:48:00,,0825.6,5.01,0.00,28.0,27.2,00.0,36.9,29.8,15.5,-000.9,0017.77,0028.63,0016.28
2021-11-09 20:49:00,,0825.5,4.99,0.00,28.0,27.2,00.0,36.9,29.8,15.5,-001.1,0017.76,0029.40,0016.30
2021-11-09 20:50:00,,0825.5,5.00,0.00,28.0,27.2,00.0,36.9,29.8,15.5,-001.2,0017.81,0029.93,0016.29
2021-11-09 20:51:00,,0825.5,5.02,0.00,28.0,27.2,00.0,36.9,29.8,15.5,-001.1,0017.85,0029.79,0016.29
2021-11-09 20:52:00,,0825.5,5.00,0.00,28.0,27.2,00.0,36.9,29.8,15.5,-000.8,0017.89,0031.00,0016.31
2021-11-09 20:53:00,,0825.4,4.99,0.00,28.0,27.2,00.0,36.9,29.8,15.5,-000.8,0017.91,0032.44,0016.33
2021-11-09 20:54:00,,0825.5,5.00,0.00,28.0,27.2,00.0,36.9,29.8,15.5,-000.7,0017.94,0033.03,0016.32
2021-11-09 20:55:00,,0825.5,4.99,0.00,28.0,27.2,00.0,37.0,29.8,15.5,-000.7,0017.92,0032.63,0016.32
2021-11-09 20:56:00,,0825.5,5.01,0.00,28.0,27.2,00.0,37.0,29.8,15.5,-000.7,0017.96,0032.59,0016.33
2021-11-09 20:57:00,,0825.4,5.00,0.00,28.0,27.2,00.0,37.0,29.8,15.5,-000.7,0018.05,0032.96,0016.35
2021-11-09 20:58:00,,0825.5,5.00,0.00,28.0,27.2,00.0,37.0,29.8,15.4,-000.8,0018.05,0033.84,0016.36
2021-11-09 20:59:00,,0825.5,5.00,0.00,28.0,27.2,00.0,37.0,29.8,15.4,-000.8,0018.03,0035.08,0016.37
